Year,Month,Day,Hour,Minute,Value (Times are PST for temperature in C)
2018,06,19,00,00,20.80
2018,06,19,00,01,20.80
2018,06,19,00,02,20.90
2018,06,19,00,03,21.00
2018,06,19,00,04,21.00
2018,06,19,00,05,21.10
2018,06,19,00,06,21.20
2018,06,19,00,07,21.40
2018,06,19,00,08,21.60
2018,06,19,00,09,21.70
2018,06,19,00,10,21.90
2018,06,19,00,11,22.00
2018,06,19,00,12,22.10
2018,06,19,00,13,22.20
2018,06,19,00,14,22.30
2018,06,19,00,15,22.30
2018,06,19,00,16,22.30
2018,06,19,00,17,22.30
2018,06,19,00,18,22.30
2018,06,19,00,19,22.30
2018,06,19,00,20,22.30
2018,06,19,00,21,22.30
2018,06,19,00,22,22.20
2018,06,19,00,23,22.20
2018,06,19,00,24,22.20
2018,06,19,00,25,22.20
2018,06,19,00,26,22.20
2018,06,19,00,27,22.20
2018,06,19,00,28,22.20
2018,06,19,00,29,22.20
2018,06,19,00,30,22.30
2018,06,19,00,31,22.20
2018,06,19,00,32,22.30
2018,06,19,00,33,22.30
2018,06,19,00,34,22.30
2018,06,19,00,35,22.30
2018,06,19,00,36,22.40
2018,06,19,00,37,22.40
2018,06,19,00,38,22.40
2018,06,19,00,39,22.40
2018,06,19,00,40,22.40
2018,06,19,00,41,22.50
2018,06,19,00,42,22.50
2018,06,19,00,43,22.50
2018,06,19,00,44,22.50
2018,06,19,00,45,22.40
2018,06,19,00,46,22.40
2018,06,19,00,47,22.40
2018,06,19,00,48,22.30
2018,06,19,00,49,22.30
2018,06,19,00,50,22.30
2018,06,19,00,51,22.20
2018,06,19,00,52,22.20
2018,06,19,00,53,22.20
2018,06,19,00,54,22.20
2018,06,19,00,55,22.10
2018,06,19,00,56,22.10
2018,06,19,00,57,22.10
2018,06,19,00,58,22.20
2018,06,19,00,59,22.20
2018,06,19,01,00,22.20
2018,06,19,01,01,22.20
2018,06,19,01,02,22.20
2018,06,19,01,03,22.20
2018,06,19,01,04,22.20
2018,06,19,01,05,22.20
2018,06,19,01,06,22.30
2018,06,19,01,07,22.30
2018,06,19,01,08,22.30
2018,06,19,01,09,22.30
2018,06,19,01,10,22.20
2018,06,19,01,11,22.20
2018,06,19,01,12,22.10
2018,06,19,01,13,22.00
2018,06,19,01,14,22.00
2018,06,19,01,15,21.90
2018,06,19,01,16,21.80
2018,06,19,01,17,21.70
2018,06,19,01,18,21.70
2018,06,19,01,19,21.60
2018,06,19,01,20,21.50
2018,06,19,01,21,21.40
2018,06,19,01,22,21.40
2018,06,19,01,23,21.30
2018,06,19,01,24,21.20
2018,06,19,01,25,21.10
2018,06,19,01,26,21.10
2018,06,19,01,27,21.00
2018,06,19,01,28,20.90
2018,06,19,01,29,20.90
2018,06,19,01,30,20.80
2018,06,19,01,31,20.80
2018,06,19,01,32,20.70
2018,06,19,01,33,20.70
2018,06,19,01,34,20.60
2018,06,19,01,35,20.50
2018,06,19,01,36,20.50
2018,06,19,01,37,20.40
2018,06,19,01,38,20.40
2018,06,19,01,39,20.30
2018,06,19,01,40,20.30
2018,06,19,01,41,20.20
2018,06,19,01,42,20.20
2018,06,19,01,43,20.10
2018,06,19,01,44,20.10
2018,06,19,01,45,20.10
2018,06,19,01,46,20.10
2018,06,19,01,47,20.10
2018,06,19,01,48,20.10
2018,06,19,01,49,20.10
2018,06,19,01,50,20.10
2018,06,19,01,51,20.10
2018,06,19,01,52,20.00
2018,06,19,01,53,20.00
2018,06,19,01,54,20.00
2018,06,19,01,55,20.00
2018,06,19,01,56,20.00
2018,06,19,01,57,20.10
2018,06,19,01,58,20.10
2018,06,19,01,59,20.10
2018,06,19,02,00,20.20
2018,06,19,02,01,20.30
2018,06,19,02,02,20.40
2018,06,19,02,03,20.50
2018,06,19,02,04,20.50
2018,06,19,02,05,20.60
2018,06,19,02,06,20.70
2018,06,19,02,07,20.70
2018,06,19,02,08,20.70
2018,06,19,02,09,20.60
2018,06,19,02,10,20.60
2018,06,19,02,11,20.60
2018,06,19,02,12,20.60
2018,06,19,02,13,20.50
2018,06,19,02,14,20.50
2018,06,19,02,15,20.40
2018,06,19,02,16,20.40
2018,06,19,02,17,20.30
2018,06,19,02,18,20.30
2018,06,19,02,19,20.20
2018,06,19,02,20,20.20
2018,06,19,02,21,20.10
2018,06,19,02,22,20.10
2018,06,19,02,23,20.00
2018,06,19,02,24,19.90
2018,06,19,02,25,19.90
2018,06,19,02,26,19.80
2018,06,19,02,27,19.80
2018,06,19,02,28,19.80
2018,06,19,02,29,19.80
2018,06,19,02,30,19.80
2018,06,19,02,31,19.80
2018,06,19,02,32,19.80
2018,06,19,02,33,19.80
2018,06,19,02,34,19.90
2018,06,19,02,35,19.90
2018,06,19,02,36,20.00
2018,06,19,02,37,20.00
2018,06,19,02,38,20.10
2018,06,19,02,39,20.20
2018,06,19,02,40,20.20
2018,06,19,02,41,20.20
2018,06,19,02,42,20.20
2018,06,19,02,43,20.20
2018,06,19,02,44,20.20
2018,06,19,02,45,20.30
2018,06,19,02,46,20.30
2018,06,19,02,47,20.30
2018,06,19,02,48,20.30
2018,06,19,02,49,20.30
2018,06,19,02,50,20.30
2018,06,19,02,51,20.30
2018,06,19,02,52,20.30
2018,06,19,02,53,20.30
2018,06,19,02,54,20.20
2018,06,19,02,55,20.20
2018,06,19,02,56,20.10
2018,06,19,02,57,20.10
2018,06,19,02,58,20.10
2018,06,19,02,59,20.10
2018,06,19,03,00,20.20
2018,06,19,03,01,20.20
2018,06,19,03,02,20.20
2018,06,19,03,03,20.30
2018,06,19,03,04,20.30
2018,06,19,03,05,20.40
2018,06,19,03,06,20.50
2018,06,19,03,07,20.60
2018,06,19,03,08,20.70
2018,06,19,03,09,20.80
2018,06,19,03,10,20.90
2018,06,19,03,11,21.00
2018,06,19,03,12,21.10
2018,06,19,03,13,21.20
2018,06,19,03,14,21.30
2018,06,19,03,15,21.40
2018,06,19,03,16,21.40
2018,06,19,03,17,21.50
2018,06,19,03,18,21.40
2018,06,19,03,19,21.40
2018,06,19,03,20,21.30
2018,06,19,03,21,21.30
2018,06,19,03,22,21.10
2018,06,19,03,23,21.00
2018,06,19,03,24,20.90
2018,06,19,03,25,20.70
2018,06,19,03,26,20.50
2018,06,19,03,27,20.40
2018,06,19,03,28,20.20
2018,06,19,03,29,20.10
2018,06,19,03,30,19.90
2018,06,19,03,31,19.80
2018,06,19,03,32,19.60
2018,06,19,03,33,19.50
2018,06,19,03,34,19.40
2018,06,19,03,35,19.30
2018,06,19,03,36,19.10
2018,06,19,03,37,19.00
2018,06,19,03,38,19.00
2018,06,19,03,39,18.90
2018,06,19,03,40,18.80
2018,06,19,03,41,18.70
2018,06,19,03,42,18.70
2018,06,19,03,43,18.60
2018,06,19,03,44,18.60
2018,06,19,03,45,18.50
2018,06,19,03,46,18.50
2018,06,19,03,47,18.40
2018,06,19,03,48,18.40
2018,06,19,03,49,18.40
2018,06,19,03,50,18.30
2018,06,19,03,51,18.30
2018,06,19,03,52,18.30
2018,06,19,03,53,18.20
2018,06,19,03,54,18.20
2018,06,19,03,55,18.20
2018,06,19,03,56,18.10
2018,06,19,03,57,18.10
2018,06,19,03,58,18.10
2018,06,19,03,59,18.10
2018,06,19,04,00,18.00
2018,06,19,04,01,18.00
2018,06,19,04,02,17.90
2018,06,19,04,03,17.90
2018,06,19,04,04,17.90
2018,06,19,04,05,17.80
2018,06,19,04,06,17.80
2018,06,19,04,07,17.70
2018,06,19,04,08,17.70
2018,06,19,04,09,17.70
2018,06,19,04,10,17.60
2018,06,19,04,11,17.60
2018,06,19,04,12,17.50
2018,06,19,04,13,17.50
2018,06,19,04,14,17.40
2018,06,19,04,15,17.40
2018,06,19,04,16,17.40
2018,06,19,04,17,17.30
2018,06,19,04,18,17.30
2018,06,19,04,19,17.30
2018,06,19,04,20,17.30
2018,06,19,04,21,17.30
2018,06,19,04,22,17.30
2018,06,19,04,23,17.30
2018,06,19,04,24,17.30
2018,06,19,04,25,17.20
2018,06,19,04,26,17.20
2018,06,19,04,27,17.20
2018,06,19,04,28,17.20
2018,06,19,04,29,17.20
2018,06,19,04,30,17.10
2018,06,19,04,31,17.10
2018,06,19,04,32,17.10
2018,06,19,04,33,17.10
2018,06,19,04,34,17.10
2018,06,19,04,35,17.10
2018,06,19,04,36,17.10
2018,06,19,04,37,17.10
2018,06,19,04,38,17.20
2018,06,19,04,39,17.20
2018,06,19,04,40,17.20
2018,06,19,04,41,17.30
2018,06,19,04,42,17.30
2018,06,19,04,43,17.30
2018,06,19,04,44,17.40
2018,06,19,04,45,17.40
2018,06,19,04,46,17.40
2018,06,19,04,47,17.40
2018,06,19,04,48,17.40
2018,06,19,04,49,17.40
2018,06,19,04,50,17.40
2018,06,19,04,51,17.40
2018,06,19,04,52,17.40
2018,06,19,04,53,17.40
2018,06,19,04,54,17.40
2018,06,19,04,55,17.40
2018,06,19,04,56,17.50
2018,06,19,04,57,17.50
2018,06,19,04,58,17.50
2018,06,19,04,59,17.50
2018,06,19,05,00,17.50
2018,06,19,05,01,17.40
2018,06,19,05,02,17.40
2018,06,19,05,03,17.40
2018,06,19,05,04,17.40
2018,06,19,05,05,17.40
2018,06,19,05,06,17.40
2018,06,19,05,07,17.30
2018,06,19,05,08,17.30
2018,06,19,05,09,17.30
2018,06,19,05,10,17.20
2018,06,19,05,11,17.20
2018,06,19,05,12,17.20
2018,06,19,05,13,17.20
2018,06,19,05,14,17.20
2018,06,19,05,15,17.10
2018,06,19,05,16,17.10
2018,06,19,05,17,17.10
2018,06,19,05,18,17.10
2018,06,19,05,19,17.10
2018,06,19,05,20,17.10
2018,06,19,05,21,17.10
2018,06,19,05,22,17.10
2018,06,19,05,23,17.00
2018,06,19,05,24,17.00
2018,06,19,05,25,17.00
2018,06,19,05,26,16.90
2018,06,19,05,27,16.90
2018,06,19,05,28,16.90
2018,06,19,05,29,16.90
2018,06,19,05,30,16.90
2018,06,19,05,31,16.90
2018,06,19,05,32,16.90
2018,06,19,05,33,16.90
2018,06,19,05,34,16.90
2018,06,19,05,35,16.90
2018,06,19,05,36,16.90
2018,06,19,05,37,16.90
2018,06,19,05,38,16.90
2018,06,19,05,39,16.90
2018,06,19,05,40,16.90
2018,06,19,05,41,16.90
2018,06,19,05,42,16.80
2018,06,19,05,43,16.80
2018,06,19,05,44,16.80
2018,06,19,05,45,16.80
2018,06,19,05,46,16.80
2018,06,19,05,47,16.80
2018,06,19,05,48,16.80
2018,06,19,05,49,16.80
2018,06,19,05,50,16.80
2018,06,19,05,51,16.80
2018,06,19,05,52,16.80
2018,06,19,05,53,16.80
2018,06,19,05,54,16.80
2018,06,19,05,55,16.80
2018,06,19,05,56,16.80
2018,06,19,05,57,16.80
2018,06,19,05,58,16.90
2018,06,19,05,59,16.90
2018,06,19,06,00,16.90
2018,06,19,06,01,16.90
2018,06,19,06,02,16.90
2018,06,19,06,03,17.00
2018,06,19,06,04,17.00
2018,06,19,06,05,17.10
2018,06,19,06,06,17.10
2018,06,19,06,07,17.20
2018,06,19,06,08,17.20
2018,06,19,06,09,17.20
2018,06,19,06,10,17.20
2018,06,19,06,11,17.30
2018,06,19,06,12,17.30
2018,06,19,06,13,17.30
2018,06,19,06,14,17.30
2018,06,19,06,15,17.30
2018,06,19,06,16,17.30
2018,06,19,06,17,17.30
2018,06,19,06,18,17.30
2018,06,19,06,19,17.30
2018,06,19,06,20,17.30
2018,06,19,06,21,17.30
2018,06,19,06,22,17.30
2018,06,19,06,23,17.30
2018,06,19,06,24,17.30
2018,06,19,06,25,17.30
2018,06,19,06,26,17.30
2018,06,19,06,27,17.30
2018,06,19,06,28,17.30
2018,06,19,06,29,17.30
2018,06,19,06,30,17.30
2018,06,19,06,31,17.30
2018,06,19,06,32,17.30
2018,06,19,06,33,17.30
2018,06,19,06,34,17.30
2018,06,19,06,35,17.40
2018,06,19,06,36,17.40
2018,06,19,06,37,17.40
2018,06,19,06,38,17.50
2018,06,19,06,39,17.50
2018,06,19,06,40,17.60
2018,06,19,06,41,17.60
2018,06,19,06,42,17.70
2018,06,19,06,43,17.70
2018,06,19,06,44,17.80
2018,06,19,06,45,17.80
2018,06,19,06,46,17.90
2018,06,19,06,47,18.00
2018,06,19,06,48,18.10
2018,06,19,06,49,18.10
2018,06,19,06,50,18.20
2018,06,19,06,51,18.30
2018,06,19,06,52,18.40
2018,06,19,06,53,18.50
2018,06,19,06,54,18.50
2018,06,19,06,55,18.60
2018,06,19,06,56,18.70
2018,06,19,06,57,18.80
2018,06,19,06,58,18.90
2018,06,19,06,59,18.90
2018,06,19,07,00,19.10
2018,06,19,07,01,19.10
2018,06,19,07,02,19.20
2018,06,19,07,03,19.30
2018,06,19,07,04,19.30
2018,06,19,07,05,19.40
2018,06,19,07,06,19.50
2018,06,19,07,07,19.60
2018,06,19,07,08,19.60
2018,06,19,07,09,19.60
2018,06,19,07,10,19.70
2018,06,19,07,11,19.70
2018,06,19,07,12,19.70
2018,06,19,07,13,19.70
2018,06,19,07,14,19.70
2018,06,19,07,15,19.70
2018,06,19,07,16,19.70
2018,06,19,07,17,19.70
2018,06,19,07,18,19.70
2018,06,19,07,19,19.70
2018,06,19,07,20,19.70
2018,06,19,07,21,19.80
2018,06,19,07,22,19.80
2018,06,19,07,23,19.80
2018,06,19,07,24,19.80
2018,06,19,07,25,19.90
2018,06,19,07,26,19.90
2018,06,19,07,27,19.90
2018,06,19,07,28,19.80
2018,06,19,07,29,19.80
2018,06,19,07,30,19.80
2018,06,19,07,31,19.70
2018,06,19,07,32,19.60
2018,06,19,07,33,19.50
2018,06,19,07,34,19.40
2018,06,19,07,35,19.30
2018,06,19,07,36,19.30
2018,06,19,07,37,19.20
2018,06,19,07,38,19.20
2018,06,19,07,39,19.10
2018,06,19,07,40,19.00
2018,06,19,07,41,19.00
2018,06,19,07,42,18.90
2018,06,19,07,43,18.80
2018,06,19,07,44,18.80
2018,06,19,07,45,18.70
2018,06,19,07,46,18.70
2018,06,19,07,47,18.70
2018,06,19,07,48,18.70
2018,06,19,07,49,18.70
2018,06,19,07,50,18.70
2018,06,19,07,51,18.70
2018,06,19,07,52,18.80
2018,06,19,07,53,18.80
2018,06,19,07,54,18.80
2018,06,19,07,55,18.90
2018,06,19,07,56,18.90
2018,06,19,07,57,18.90
2018,06,19,07,58,19.00
2018,06,19,07,59,19.10
2018,06,19,08,00,19.10
2018,06,19,08,01,19.20
2018,06,19,08,02,19.20
2018,06,19,08,03,19.20
2018,06,19,08,04,19.30
2018,06,19,08,05,19.30
2018,06,19,08,06,19.30
2018,06,19,08,07,19.40
2018,06,19,08,08,19.40
2018,06,19,08,09,19.40
2018,06,19,08,10,19.40
2018,06,19,08,11,19.40
2018,06,19,08,12,19.50
2018,06,19,08,13,19.50
2018,06,19,08,14,19.50
2018,06,19,08,15,19.50
2018,06,19,08,16,19.60
2018,06,19,08,17,19.60
2018,06,19,08,18,19.60
2018,06,19,08,19,19.60
2018,06,19,08,20,19.60
2018,06,19,08,21,19.60
2018,06,19,08,22,19.60
2018,06,19,08,23,19.60
2018,06,19,08,24,19.60
2018,06,19,08,25,19.60
2018,06,19,08,26,19.60
2018,06,19,08,27,19.60
2018,06,19,08,28,19.60
2018,06,19,08,29,19.60
2018,06,19,08,30,19.70
2018,06,19,08,31,19.80
2018,06,19,08,32,19.80
2018,06,19,08,33,19.80
2018,06,19,08,34,19.80
2018,06,19,08,35,19.80
2018,06,19,08,36,19.70
2018,06,19,08,37,19.60
2018,06,19,08,38,19.50
2018,06,19,08,39,19.40
2018,06,19,08,40,19.40
2018,06,19,08,41,19.40
2018,06,19,08,42,19.30
2018,06,19,08,43,19.30
2018,06,19,08,44,19.30
2018,06,19,08,45,19.30
2018,06,19,08,46,19.30
2018,06,19,08,47,19.20
2018,06,19,08,48,19.20
2018,06,19,08,49,19.20
2018,06,19,08,50,19.20
2018,06,19,08,51,19.10
2018,06,19,08,52,19.10
2018,06,19,08,53,19.10
2018,06,19,08,54,19.00
2018,06,19,08,55,19.00
2018,06,19,08,56,18.90
2018,06,19,08,57,18.90
2018,06,19,08,58,18.90
2018,06,19,08,59,18.90
2018,06,19,09,00,18.90
2018,06,19,09,01,18.90
2018,06,19,09,02,18.90
2018,06,19,09,03,19.00
2018,06,19,09,04,19.00
2018,06,19,09,05,19.00
2018,06,19,09,06,19.00
2018,06,19,09,07,18.90
2018,06,19,09,08,18.90
2018,06,19,09,09,18.90
2018,06,19,09,10,18.90
2018,06,19,09,11,18.80
2018,06,19,09,12,18.80
2018,06,19,09,13,18.80
2018,06,19,09,14,18.80
2018,06,19,09,15,18.80
2018,06,19,09,16,18.80
2018,06,19,09,17,18.80
2018,06,19,09,18,18.80
2018,06,19,09,19,18.80
2018,06,19,09,20,18.80
2018,06,19,09,21,18.70
2018,06,19,09,22,18.70
2018,06,19,09,23,18.70
2018,06,19,09,24,18.60
2018,06,19,09,25,18.60
2018,06,19,09,26,18.60
2018,06,19,09,27,18.50
2018,06,19,09,28,18.40
2018,06,19,09,29,18.40
2018,06,19,09,30,18.40
2018,06,19,09,31,18.40
2018,06,19,09,32,18.40
2018,06,19,09,33,18.40
2018,06,19,09,34,18.40
2018,06,19,09,35,18.40
2018,06,19,09,36,18.40
2018,06,19,09,37,18.40
2018,06,19,09,38,18.40
2018,06,19,09,39,18.40
2018,06,19,09,40,18.40
2018,06,19,09,41,18.30
2018,06,19,09,42,18.30
2018,06,19,09,43,18.30
2018,06,19,09,44,18.30
2018,06,19,09,45,18.30
2018,06,19,09,46,18.30
2018,06,19,09,47,18.30
2018,06,19,09,48,18.30
2018,06,19,09,49,18.30
2018,06,19,09,50,18.30
2018,06,19,09,51,18.40
2018,06,19,09,52,18.40
2018,06,19,09,53,18.40
2018,06,19,09,54,18.40
2018,06,19,09,55,18.40
2018,06,19,09,56,18.50
2018,06,19,09,57,18.40
2018,06,19,09,58,18.40
2018,06,19,09,59,18.40
2018,06,19,10,00,18.30
2018,06,19,10,01,18.30
2018,06,19,10,02,18.40
2018,06,19,10,03,18.40
2018,06,19,10,04,18.40
2018,06,19,10,05,18.40
2018,06,19,10,06,18.50
2018,06,19,10,07,18.50
2018,06,19,10,08,18.60
2018,06,19,10,09,18.60
2018,06,19,10,10,18.60
2018,06,19,10,11,18.60
2018,06,19,10,12,18.70
2018,06,19,10,13,18.70
2018,06,19,10,14,18.70
2018,06,19,10,15,18.80
2018,06,19,10,16,18.90
2018,06,19,10,17,19.00
2018,06,19,10,18,19.10
2018,06,19,10,19,19.10
2018,06,19,10,20,19.20
2018,06,19,10,21,19.30
2018,06,19,10,22,19.40
2018,06,19,10,23,19.50
2018,06,19,10,24,19.60
2018,06,19,10,25,19.70
2018,06,19,10,26,19.90
2018,06,19,10,27,20.00
2018,06,19,10,28,20.10
2018,06,19,10,29,20.10
2018,06,19,10,30,20.20
2018,06,19,10,31,20.20
2018,06,19,10,32,20.20
2018,06,19,10,33,20.20
2018,06,19,10,34,20.20
2018,06,19,10,35,20.30
2018,06,19,10,36,20.30
2018,06,19,10,37,20.40
2018,06,19,10,38,20.40
2018,06,19,10,39,20.40
2018,06,19,10,40,20.40
2018,06,19,10,41,20.40
2018,06,19,10,42,20.50
2018,06,19,10,43,20.50
2018,06,19,10,44,20.60
2018,06,19,10,45,20.60
2018,06,19,10,46,20.60
2018,06,19,10,47,20.50
2018,06,19,10,48,20.40
2018,06,19,10,49,20.30
2018,06,19,10,50,20.30
2018,06,19,10,51,20.30
2018,06,19,10,52,20.20
2018,06,19,10,53,20.20
2018,06,19,10,54,20.10
2018,06,19,10,55,20.10
2018,06,19,10,56,20.10
2018,06,19,10,57,20.10
2018,06,19,10,58,20.10
2018,06,19,10,59,20.10
2018,06,19,11,00,20.10
2018,06,19,11,01,20.20
2018,06,19,11,02,20.20
2018,06,19,11,03,20.20
2018,06,19,11,04,20.20
2018,06,19,11,05,20.20
2018,06,19,11,06,20.20
2018,06,19,11,07,20.20
2018,06,19,11,08,20.30
2018,06,19,11,09,20.40
2018,06,19,11,10,20.40
2018,06,19,11,11,20.50
2018,06,19,11,12,20.50
2018,06,19,11,13,20.50
2018,06,19,11,14,20.60
2018,06,19,11,15,20.60
2018,06,19,11,16,20.50
2018,06,19,11,17,20.50
2018,06,19,11,18,20.50
2018,06,19,11,19,20.60
2018,06,19,11,20,20.60
2018,06,19,11,21,20.60
2018,06,19,11,22,20.60
2018,06,19,11,23,20.60
2018,06,19,11,24,20.60
2018,06,19,11,25,20.60
2018,06,19,11,26,20.60
2018,06,19,11,27,20.50
2018,06,19,11,28,20.50
2018,06,19,11,29,20.40
2018,06,19,11,30,20.40
2018,06,19,11,31,20.40
2018,06,19,11,32,20.40
2018,06,19,11,33,20.50
2018,06,19,11,34,20.50
2018,06,19,11,35,20.50
2018,06,19,11,36,20.60
2018,06,19,11,37,20.60
2018,06,19,11,38,20.60
2018,06,19,11,39,20.70
2018,06,19,11,40,20.80
2018,06,19,11,41,20.80
2018,06,19,11,42,20.90
2018,06,19,11,43,20.90
2018,06,19,11,44,20.90
2018,06,19,11,45,20.90
2018,06,19,11,46,21.00
2018,06,19,11,47,21.10
2018,06,19,11,48,21.10
2018,06,19,11,49,21.20
2018,06,19,11,50,21.20
2018,06,19,11,51,21.20
2018,06,19,11,52,21.20
2018,06,19,11,53,21.20
2018,06,19,11,54,21.20
2018,06,19,11,55,21.10
2018,06,19,11,56,21.10
2018,06,19,11,57,21.00
2018,06,19,11,58,21.00
2018,06,19,11,59,20.90
2018,06,19,12,00,20.90
2018,06,19,12,01,20.80
2018,06,19,12,02,20.80
2018,06,19,12,03,20.80
2018,06,19,12,04,20.90
2018,06,19,12,05,20.90
2018,06,19,12,06,20.90
2018,06,19,12,07,20.90
2018,06,19,12,08,21.00
2018,06,19,12,09,21.00
2018,06,19,12,10,21.10
2018,06,19,12,11,21.10
2018,06,19,12,12,21.10
2018,06,19,12,13,21.10
2018,06,19,12,14,21.10
2018,06,19,12,15,21.10
2018,06,19,12,16,21.10
2018,06,19,12,17,21.10
2018,06,19,12,18,21.10
2018,06,19,12,19,21.20
2018,06,19,12,20,21.20
2018,06,19,12,21,21.20
2018,06,19,12,22,21.20
2018,06,19,12,23,21.20
2018,06,19,12,24,21.10
2018,06,19,12,25,21.10
2018,06,19,12,26,21.10
2018,06,19,12,27,21.00
2018,06,19,12,28,20.90
2018,06,19,12,29,20.90
2018,06,19,12,30,20.80
2018,06,19,12,31,20.70
2018,06,19,12,32,20.70
2018,06,19,12,33,20.70
2018,06,19,12,34,20.70
2018,06,19,12,35,20.70
2018,06,19,12,36,20.70
2018,06,19,12,37,20.70
2018,06,19,12,38,20.70
2018,06,19,12,39,20.70
2018,06,19,12,40,20.70
2018,06,19,12,41,20.70
2018,06,19,12,42,20.80
2018,06,19,12,43,20.80
2018,06,19,12,44,20.80
2018,06,19,12,45,20.80
2018,06,19,12,46,20.80
2018,06,19,12,47,20.80
2018,06,19,12,48,20.80
2018,06,19,12,49,20.80
2018,06,19,12,50,20.80
2018,06,19,12,51,20.80
2018,06,19,12,52,20.70
2018,06,19,12,53,20.70
2018,06,19,12,54,20.70
2018,06,19,12,55,20.60
2018,06,19,12,56,20.60
2018,06,19,12,57,20.60
2018,06,19,12,58,20.60
2018,06,19,12,59,20.50
2018,06,19,13,00,20.50
2018,06,19,13,01,20.50
2018,06,19,13,02,20.50
2018,06,19,13,03,20.50
2018,06,19,13,04,20.50
2018,06,19,13,05,20.50
2018,06,19,13,06,20.60
2018,06,19,13,07,20.60
2018,06,19,13,08,20.60
2018,06,19,13,09,20.60
2018,06,19,13,10,20.70
2018,06,19,13,11,20.70
2018,06,19,13,12,20.70
2018,06,19,13,13,20.70
2018,06,19,13,14,20.80
2018,06,19,13,15,20.80
2018,06,19,13,16,20.80
2018,06,19,13,17,20.80
2018,06,19,13,18,20.90
2018,06,19,13,19,20.90
2018,06,19,13,20,20.90
2018,06,19,13,21,20.90
2018,06,19,13,22,20.90
2018,06,19,13,23,20.90
2018,06,19,13,24,21.00
2018,06,19,13,25,21.00
2018,06,19,13,26,21.00
2018,06,19,13,27,21.00
2018,06,19,13,28,21.00
2018,06,19,13,29,21.00
2018,06,19,13,30,21.10
2018,06,19,13,31,21.10
2018,06,19,13,32,21.10
2018,06,19,13,33,21.20
2018,06,19,13,34,21.20
2018,06,19,13,35,21.20
2018,06,19,13,36,21.20
2018,06,19,13,37,21.20
2018,06,19,13,38,21.30
2018,06,19,13,39,21.40
2018,06,19,13,40,21.40
2018,06,19,13,41,21.50
2018,06,19,13,42,21.60
2018,06,19,13,43,21.70
2018,06,19,13,44,21.80
2018,06,19,13,45,21.80
2018,06,19,13,46,21.80
2018,06,19,13,47,21.90
2018,06,19,13,48,21.90
2018,06,19,13,49,21.90
2018,06,19,13,50,22.00
2018,06,19,13,51,22.00
2018,06,19,13,52,22.10
2018,06,19,13,53,22.20
2018,06,19,13,54,22.30
2018,06,19,13,55,22.40
2018,06,19,13,56,22.40
2018,06,19,13,57,22.40
2018,06,19,13,58,22.40
2018,06,19,13,59,22.40
2018,06,19,14,00,22.50
2018,06,19,14,01,22.50
2018,06,19,14,02,22.60
2018,06,19,14,03,22.60
2018,06,19,14,04,22.60
2018,06,19,14,05,22.60
2018,06,19,14,06,22.60
2018,06,19,14,07,22.60
2018,06,19,14,08,22.60
2018,06,19,14,09,22.60
2018,06,19,14,10,22.60
2018,06,19,14,11,22.60
2018,06,19,14,12,22.50
2018,06,19,14,13,22.40
2018,06,19,14,14,22.30
2018,06,19,14,15,22.30
2018,06,19,14,16,22.30
2018,06,19,14,17,22.20
2018,06,19,14,18,22.20
2018,06,19,14,19,22.20
2018,06,19,14,20,22.10
2018,06,19,14,21,22.00
2018,06,19,14,22,21.90
2018,06,19,14,23,21.80
2018,06,19,14,24,21.70
2018,06,19,14,25,21.70
2018,06,19,14,26,21.60
2018,06,19,14,27,21.60
2018,06,19,14,28,21.60
2018,06,19,14,29,21.60
2018,06,19,14,30,21.60
2018,06,19,14,31,21.60
2018,06,19,14,32,21.50
2018,06,19,14,33,21.50
2018,06,19,14,34,21.50
2018,06,19,14,35,21.60
2018,06,19,14,36,21.70
2018,06,19,14,37,21.80
2018,06,19,14,38,21.80
2018,06,19,14,39,21.90
2018,06,19,14,40,21.90
2018,06,19,14,41,21.90
2018,06,19,14,42,21.90
2018,06,19,14,43,21.90
2018,06,19,14,44,22.00
2018,06,19,14,45,22.00
2018,06,19,14,46,22.10
2018,06,19,14,47,22.10
2018,06,19,14,48,22.10
2018,06,19,14,49,22.20
2018,06,19,14,50,22.20
2018,06,19,14,51,22.20
2018,06,19,14,52,22.30
2018,06,19,14,53,22.40
2018,06,19,14,54,22.40
2018,06,19,14,55,22.50
2018,06,19,14,56,22.60
2018,06,19,14,57,22.70
2018,06,19,14,58,22.80
2018,06,19,14,59,22.90
2018,06,19,15,00,23.00
2018,06,19,15,01,23.10
2018,06,19,15,02,23.20
2018,06,19,15,03,23.20
2018,06,19,15,04,23.20
2018,06,19,15,05,23.30
2018,06,19,15,06,23.40
2018,06,19,15,07,23.40
2018,06,19,15,08,23.50
2018,06,19,15,09,23.60
2018,06,19,15,10,23.60
2018,06,19,15,11,23.60
2018,06,19,15,12,23.60
2018,06,19,15,13,23.60
2018,06,19,15,14,23.60
2018,06,19,15,15,23.60
2018,06,19,15,16,23.50
2018,06,19,15,17,23.50
2018,06,19,15,18,23.40
2018,06,19,15,19,23.40
2018,06,19,15,20,23.40
2018,06,19,15,21,23.40
2018,06,19,15,22,23.40
2018,06,19,15,23,23.30
2018,06,19,15,24,23.30
2018,06,19,15,25,23.30
2018,06,19,15,26,23.20
2018,06,19,15,27,23.20
2018,06,19,15,28,23.10
2018,06,19,15,29,23.00
2018,06,19,15,30,22.90
2018,06,19,15,31,22.80
2018,06,19,15,32,22.70
2018,06,19,15,33,22.60
2018,06,19,15,34,22.50
2018,06,19,15,35,22.40
2018,06,19,15,36,22.30
2018,06,19,15,37,22.30
2018,06,19,15,38,22.30
2018,06,19,15,39,22.30
2018,06,19,15,40,22.30
2018,06,19,15,41,22.30
2018,06,19,15,42,22.30
2018,06,19,15,43,22.30
2018,06,19,15,44,22.40
2018,06,19,15,45,22.40
2018,06,19,15,46,22.40
2018,06,19,15,47,22.50
2018,06,19,15,48,22.40
2018,06,19,15,49,22.40
2018,06,19,15,50,22.40
2018,06,19,15,51,22.30
2018,06,19,15,52,22.30
2018,06,19,15,53,22.30
2018,06,19,15,54,22.30
2018,06,19,15,55,22.30
2018,06,19,15,56,22.30
2018,06,19,15,57,22.30
2018,06,19,15,58,22.40
2018,06,19,15,59,22.50
2018,06,19,16,00,22.50
2018,06,19,16,01,22.60
2018,06,19,16,02,22.60
2018,06,19,16,03,22.60
2018,06,19,16,04,22.60
2018,06,19,16,05,22.70
2018,06,19,16,06,22.70
2018,06,19,16,07,22.70
2018,06,19,16,08,22.80
2018,06,19,16,09,22.80
2018,06,19,16,10,22.90
2018,06,19,16,11,22.90
2018,06,19,16,12,23.00
2018,06,19,16,13,23.00
2018,06,19,16,14,22.90
2018,06,19,16,15,23.00
2018,06,19,16,16,23.10
2018,06,19,16,17,23.10
2018,06,19,16,18,23.20
2018,06,19,16,19,23.30
2018,06,19,16,20,23.30
2018,06,19,16,21,23.30
2018,06,19,16,22,23.40
2018,06,19,16,23,23.40
2018,06,19,16,24,23.50
2018,06,19,16,25,23.60
2018,06,19,16,26,23.60
2018,06,19,16,27,23.60
2018,06,19,16,28,23.60
2018,06,19,16,29,23.70
2018,06,19,16,30,23.80
2018,06,19,16,31,23.80
2018,06,19,16,32,23.80
2018,06,19,16,33,23.80
2018,06,19,16,34,23.80
2018,06,19,16,35,23.80
2018,06,19,16,36,23.80
2018,06,19,16,37,23.70
2018,06,19,16,38,23.70
2018,06,19,16,39,23.80
2018,06,19,16,40,23.80
2018,06,19,16,41,23.80
2018,06,19,16,42,23.80
2018,06,19,16,43,23.80
2018,06,19,16,44,23.80
2018,06,19,16,45,23.90
2018,06,19,16,46,23.90
2018,06,19,16,47,23.90
2018,06,19,16,48,24.00
2018,06,19,16,49,24.00
2018,06,19,16,50,24.10
2018,06,19,16,51,24.10
2018,06,19,16,52,24.10
2018,06,19,16,53,24.10
2018,06,19,16,54,24.10
2018,06,19,16,55,24.10
2018,06,19,16,56,24.10
2018,06,19,16,57,24.10
2018,06,19,16,58,24.00
2018,06,19,16,59,24.00
2018,06,19,17,00,24.00
2018,06,19,17,01,24.00
2018,06,19,17,02,24.10
2018,06,19,17,03,24.10
2018,06,19,17,04,24.10
2018,06,19,17,05,24.10
2018,06,19,17,06,24.10
2018,06,19,17,07,24.20
2018,06,19,17,08,24.20
2018,06,19,17,09,24.20
2018,06,19,17,10,24.20
2018,06,19,17,11,24.20
2018,06,19,17,12,24.30
2018,06,19,17,13,24.30
2018,06,19,17,14,24.30
2018,06,19,17,15,24.20
2018,06,19,17,16,24.20
2018,06,19,17,17,24.20
2018,06,19,17,18,24.10
2018,06,19,17,19,24.10